N13NP KSAN-KSNA

Flight info

Callsign N13NP
Flight time 0h 26m
Altitude 10000
Route PEBLE6 SXC SLI
Aircraft C25C/M-SDE2E3FGHRWXY/LB1

Departure

Time 2026-04-26 02:05
Airport San Diego International Airport (KSAN)

Arrival

Time 2026-04-26 02:32
Airport John Wayne Orange County International Airport (KSNA)
Time Latitude Longitude Altitude Speed Heading
2026-04-26 01:42 32.73342 -117.17873 23 ft 0 kts 185°
2026-04-26 01:58 32.73340 -117.17875 18 ft 2 kts 205°
2026-04-26 01:58 32.73345 -117.17926 18 ft 9 kts 278°
2026-04-26 01:58 32.73309 -117.17968 18 ft 9 kts 192°
2026-04-26 01:58 32.73235 -117.17969 15 ft 12 kts 140°
2026-04-26 01:59 32.73207 -117.17868 15 ft 13 kts 104°
2026-04-26 01:59 32.73181 -117.17764 17 ft 13 kts 108°
2026-04-26 01:59 32.73152 -117.17654 16 ft 15 kts 107°
2026-04-26 01:59 32.73112 -117.17564 16 ft 3 kts 146°
2026-04-26 02:02 32.73111 -117.17564 15 ft 2 kts 147°
2026-04-26 02:02 32.73105 -117.17559 15 ft 0 kts 146°
2026-04-26 02:04 32.73104 -117.17558 15 ft 2 kts 147°
2026-04-26 02:05 32.73016 -117.17575 19 ft 18 kts 271°
2026-04-26 02:05 32.73131 -117.18044 16 ft 115 kts 285°
2026-04-26 02:05 32.73438 -117.19271 378 ft 190 kts 287°
2026-04-26 02:05 32.73936 -117.21079 1040 ft 259 kts 287°
2026-04-26 02:06 32.74551 -117.22861 1904 ft 220 kts 295°
2026-04-26 02:06 32.75353 -117.24406 2546 ft 221 kts 302°
2026-04-26 02:06 32.76314 -117.25950 3259 ft 248 kts 305°
2026-04-26 02:06 32.77416 -117.27605 4166 ft 249 kts 307°
2026-04-26 02:07 32.78524 -117.29153 4543 ft 252 kts 307°
2026-04-26 02:07 32.79472 -117.30873 5009 ft 248 kts 297°
2026-04-26 02:07 32.80507 -117.32538 5685 ft 253 kts 313°
2026-04-26 02:07 32.81590 -117.34122 7165 ft 247 kts 300°
2026-04-26 02:08 32.82548 -117.35871 8319 ft 256 kts 303°
2026-04-26 02:08 32.83646 -117.37571 9524 ft 266 kts 303°
2026-04-26 02:08 32.84820 -117.39409 9999 ft 299 kts 303°
2026-04-26 02:08 32.86185 -117.41500 10001 ft 339 kts 304°
2026-04-26 02:09 32.87543 -117.43599 9999 ft 300 kts 304°
2026-04-26 02:09 32.88765 -117.45473 9994 ft 283 kts 303°
2026-04-26 02:09 32.89967 -117.47375 9993 ft 292 kts 303°
2026-04-26 02:09 32.91217 -117.49322 9993 ft 298 kts 303°
2026-04-26 02:10 32.92487 -117.51304 9986 ft 305 kts 304°
2026-04-26 02:10 32.93800 -117.53327 9987 ft 313 kts 304°
2026-04-26 02:10 32.95137 -117.55414 9985 ft 319 kts 304°
2026-04-26 02:10 32.96477 -117.57515 9986 ft 319 kts 303°
2026-04-26 02:11 32.97834 -117.59608 9982 ft 319 kts 304°
2026-04-26 02:11 32.99176 -117.61713 9982 ft 319 kts 303°
2026-04-26 02:11 33.00520 -117.63809 9983 ft 319 kts 304°
2026-04-26 02:11 33.01855 -117.65912 9980 ft 318 kts 304°
2026-04-26 02:12 33.03198 -117.68006 9981 ft 318 kts 304°
2026-04-26 02:12 33.04539 -117.70091 9980 ft 317 kts 304°
2026-04-26 02:12 33.05869 -117.72187 9975 ft 317 kts 304°
2026-04-26 02:12 33.07433 -117.74051 9971 ft 321 kts 318°
2026-04-26 02:13 33.09154 -117.75726 9993 ft 319 kts 315°
2026-04-26 02:13 33.10807 -117.77495 9993 ft 320 kts 316°
2026-04-26 02:13 33.12511 -117.79203 9993 ft 320 kts 316°
2026-04-26 02:13 33.14218 -117.80906 9994 ft 320 kts 317°
2026-04-26 02:14 33.15896 -117.82604 9991 ft 319 kts 314°
2026-04-26 02:14 33.17557 -117.84360 9989 ft 320 kts 316°
2026-04-26 02:14 33.19353 -117.85943 9981 ft 324 kts 328°
2026-04-26 02:14 33.21452 -117.86703 9887 ft 299 kts 343°
2026-04-26 02:15 33.23395 -117.87225 9602 ft 284 kts 343°
2026-04-26 02:15 33.25347 -117.87678 9272 ft 287 kts 345°
2026-04-26 02:15 33.27314 -117.88162 8946 ft 289 kts 343°
2026-04-26 02:15 33.29290 -117.88651 8639 ft 291 kts 344°
2026-04-26 02:16 33.31272 -117.89155 8331 ft 291 kts 344°
2026-04-26 02:16 33.33260 -117.89653 8025 ft 292 kts 344°
2026-04-26 02:16 33.34573 -117.89972 7826 ft 291 kts 345°
2026-04-26 02:16 33.36553 -117.90462 7527 ft 287 kts 344°
2026-04-26 02:17 33.38491 -117.90961 7223 ft 283 kts 343°
2026-04-26 02:17 33.40347 -117.91678 6926 ft 277 kts 338°
2026-04-26 02:17 33.42188 -117.92330 6643 ft 274 kts 342°
2026-04-26 02:17 33.44016 -117.92938 6346 ft 271 kts 340°
2026-04-26 02:18 33.45807 -117.93607 6034 ft 268 kts 339°
2026-04-26 02:18 33.47583 -117.94276 5724 ft 267 kts 340°
2026-04-26 02:18 33.49362 -117.94902 5417 ft 265 kts 339°
2026-04-26 02:18 33.51118 -117.95564 5113 ft 265 kts 342°
2026-04-26 02:19 33.52890 -117.96153 4813 ft 264 kts 339°
2026-04-26 02:19 33.54638 -117.96827 4503 ft 264 kts 340°
2026-04-26 02:19 33.56380 -117.97457 4201 ft 264 kts 340°
2026-04-26 02:19 33.58133 -117.98106 3891 ft 263 kts 340°
2026-04-26 02:20 33.59888 -117.98734 3586 ft 263 kts 340°
2026-04-26 02:20 33.61603 -117.99365 3284 ft 249 kts 340°
2026-04-26 02:20 33.63210 -117.99947 3081 ft 232 kts 340°
2026-04-26 02:20 33.64698 -118.00493 3015 ft 215 kts 340°
2026-04-26 02:21 33.66111 -118.01008 2989 ft 211 kts 338°
2026-04-26 02:21 33.67512 -118.01514 2984 ft 209 kts 340°
2026-04-26 02:21 33.68948 -118.01583 2985 ft 213 kts 15°
2026-04-26 02:21 33.70318 -118.00904 2985 ft 213 kts 20°
2026-04-26 02:22 33.71681 -118.00222 2985 ft 212 kts 21°
2026-04-26 02:22 33.73030 -117.99523 2988 ft 211 kts 20°
2026-04-26 02:22 33.74376 -117.98822 2989 ft 210 kts 21°
2026-04-26 02:22 33.75721 -117.98140 2950 ft 210 kts 21°
2026-04-26 02:23 33.77060 -117.97442 2953 ft 209 kts 22°
2026-04-26 02:23 33.78385 -117.96738 2955 ft 208 kts 21°
2026-04-26 02:23 33.79712 -117.96049 2950 ft 207 kts 21°
2026-04-26 02:23 33.81034 -117.95346 2983 ft 209 kts 22°
2026-04-26 02:24 33.82379 -117.94630 2983 ft 212 kts 21°
2026-04-26 02:24 33.83721 -117.93909 2992 ft 215 kts 21°
2026-04-26 02:24 33.85090 -117.93173 3000 ft 216 kts 21°
2026-04-26 02:24 33.86414 -117.92317 2989 ft 219 kts 42°
2026-04-26 02:25 33.87000 -117.90665 2985 ft 220 kts 90°
2026-04-26 02:25 33.86857 -117.88842 2990 ft 218 kts 99°
2026-04-26 02:25 33.86657 -117.87031 2995 ft 219 kts 101°
2026-04-26 02:25 33.86434 -117.85217 2992 ft 219 kts 101°
2026-04-26 02:26 33.86200 -117.83412 2991 ft 219 kts 101°
2026-04-26 02:26 33.85958 -117.81606 2993 ft 219 kts 101°
2026-04-26 02:26 33.85639 -117.79829 2986 ft 216 kts 118°
2026-04-26 02:26 33.84542 -117.78734 2981 ft 207 kts 168°
2026-04-26 02:27 33.83258 -117.78865 2985 ft 177 kts 206°
2026-04-26 02:27 33.82212 -117.79525 2973 ft 164 kts 208°
2026-04-26 02:27 33.81178 -117.80021 2880 ft 160 kts 202°
2026-04-26 02:27 33.80142 -117.80459 2707 ft 159 kts 202°
2026-04-26 02:28 33.79069 -117.80933 2404 ft 166 kts 203°
2026-04-26 02:28 33.77955 -117.81321 2153 ft 168 kts 197°
2026-04-26 02:28 33.76818 -117.81634 1910 ft 168 kts 197°
2026-04-26 02:28 33.75707 -117.82027 1711 ft 164 kts 201°
2026-04-26 02:29 33.74706 -117.82479 1611 ft 147 kts 203°
2026-04-26 02:29 33.73784 -117.82946 1331 ft 140 kts 206°
2026-04-26 02:29 33.72987 -117.83464 1131 ft 115 kts 209°
2026-04-26 02:29 33.72302 -117.83895 942 ft 114 kts 211°
2026-04-26 02:30 33.71585 -117.84345 853 ft 115 kts 208°
2026-04-26 02:30 33.70884 -117.84793 746 ft 112 kts 212°
2026-04-26 02:30 33.70193 -117.85199 594 ft 112 kts 212°
2026-04-26 02:30 33.69528 -117.85649 442 ft 108 kts 211°
2026-04-26 02:31 33.68887 -117.86051 250 ft 99 kts 208°
2026-04-26 02:31 33.68293 -117.86433 94 ft 96 kts 209°
2026-04-26 02:31 33.67753 -117.86777 53 ft 76 kts 208°
2026-04-26 02:31 33.67357 -117.87022 53 ft 55 kts 207°
2026-04-26 02:32 33.67211 -117.87199 52 ft 20 kts 256°
2026-04-26 02:32 33.67202 -117.87240 50 ft 1 kts 254°
2026-04-26 02:32 33.67202 -117.87241 50 ft 1 kts 254°
2026-04-26 02:32 33.67183 -117.87308 54 ft 11 kts 289°
2026-04-26 02:33 33.67183 -117.87380 55 ft 0 kts 245°